Time,TemperatureF,DewpointF,PressureIn,WindDirection,WindDirectionDegrees,WindSpeedMPH,WindSpeedGustMPH,Humidity,HourlyPrecipIn,Conditions,Clouds,dailyrainin,SoftwareType,DateUTC
2013-12-07 00:00:00,-1.1,-10.7,30.47,NE,49,0.0,0.0,63,0.00,CLR,SKC,0.00,WeatherDisplay:10.37,2013-12-07 07:00:00,
2013-12-07 00:05:00,-1.1,-10.4,30.47,NE,49,0.0,0.0,64,0.00,CLR,SKC,0.00,WeatherDisplay:10.37,2013-12-07 07:05:00,
2013-12-07 00:10:00,-1.2,-10.8,30.47,NE,49,0.0,0.0,63,0.00,CLR,SKC,0.00,WeatherDisplay:10.37,2013-12-07 07:10:00,
2013-12-07 00:16:00,-1.3,-11.2,30.47,NE,49,0.0,0.0,62,0.00,CLR,SKC,0.00,WeatherDisplay:10.37,2013-12-07 07:16:00,
2013-12-07 00:21:00,-1.3,-11.5,30.47,NE,49,0.0,0.0,61,0.00,CLR,SKC,0.00,WeatherDisplay:10.37,2013-12-07 07:21:00,
2013-12-07 00:26:00,-1.3,-11.2,30.46,NE,49,0.0,0.0,62,0.00,CLR,SKC,0.00,WeatherDisplay:10.37,2013-12-07 07:26:00,
2013-12-07 00:31:00,-1.4,-11.6,30.46,NE,49,0.0,0.0,61,0.00,CLR,SKC,0.00,WeatherDisplay:10.37,2013-12-07 07:31:00,
2013-12-07 00:36:00,-1.5,-11.4,30.46,NE,49,0.0,0.0,62,0.00,CLR,SKC,0.00,WeatherDisplay:10.37,2013-12-07 07:36:00,
2013-12-07 00:41:00,-1.6,-11.1,30.46,NE,49,0.0,0.0,63,0.00,CLR,SKC,0.00,WeatherDisplay:10.37,2013-12-07 07:41:00,
2013-12-07 00:45:00,-1.8,-11.0,30.46,NE,49,0.0,0.0,64,0.00,CLR,SKC,0.00,WeatherDisplay:10.37,2013-12-07 07:45:00,
2013-12-07 00:50:00,-1.9,-11.4,30.46,NE,49,0.0,0.0,63,0.00,CLR,SKC,0.00,WeatherDisplay:10.37,2013-12-07 07:50:00,
2013-12-07 00:55:00,-1.8,-11.7,30.46,NE,49,0.0,0.0,62,0.00,CLR,SKC,0.00,WeatherDisplay:10.37,2013-12-07 07:55:00,
2013-12-07 01:00:00,-1.8,-11.7,30.45,NE,49,0.0,0.0,62,0.00,CLR,SKC,0.00,WeatherDisplay:10.37,2013-12-07 08:00:00,
2013-12-07 01:05:00,-1.8,-11.7,30.45,NE,49,0.0,0.0,62,0.00,CLR,SKC,0.00,WeatherDisplay:10.37,2013-12-07 08:05:00,
2013-12-07 01:10:00,-1.9,-11.8,30.45,NE,49,0.0,0.0,62,0.00,CLR,SKC,0.00,WeatherDisplay:10.37,2013-12-07 08:10:00,
2013-12-07 01:15:00,-2.0,-11.5,30.45,NE,49,0.0,0.0,63,0.00,CLR,SKC,0.00,WeatherDisplay:10.37,2013-12-07 08:15:00,
2013-12-07 01:20:00,-2.1,-11.3,30.45,NE,49,1.1,1.1,64,0.00,CLR,SKC,0.00,WeatherDisplay:10.37,2013-12-07 08:20:00,
2013-12-07 01:25:00,-2.2,-11.4,30.45,NE,49,0.0,0.0,64,0.00,CLR,SKC,0.00,WeatherDisplay:10.37,2013-12-07 08:25:00,
2013-12-07 01:30:00,-2.4,-11.9,30.45,NE,49,0.0,0.0,63,0.00,CLR,SKC,0.00,WeatherDisplay:10.37,2013-12-07 08:30:00,
2013-12-07 01:35:00,-2.5,-11.7,30.45,NE,49,0.0,0.0,64,0.00,CLR,SKC,0.00,WeatherDisplay:10.37,2013-12-07 08:35:00,
2013-12-07 01:40:00,-2.5,-11.7,30.45,NE,49,0.0,0.0,64,0.00,CLR,SKC,0.00,WeatherDisplay:10.37,2013-12-07 08:40:00,
2013-12-07 01:45:00,-2.6,-11.8,30.45,NE,49,0.0,0.0,64,0.00,CLR,SKC,0.00,WeatherDisplay:10.37,2013-12-07 08:45:00,
2013-12-07 01:50:00,-2.7,-11.9,30.45,NE,49,0.0,0.0,64,0.00,CLR,SKC,0.00,WeatherDisplay:10.37,2013-12-07 08:50:00,
2013-12-07 01:55:00,-2.7,-11.9,30.45,NE,49,0.0,0.0,64,0.00,CLR,SKC,0.00,WeatherDisplay:10.37,2013-12-07 08:55:00,
2013-12-07 02:00:00,-2.8,-12.0,30.45,NE,49,0.0,0.0,64,0.00,CLR,SKC,0.00,WeatherDisplay:10.37,2013-12-07 09:00:00,
2013-12-07 02:05:00,-2.8,-12.0,30.45,NE,49,0.0,0.0,64,0.00,CLR,SKC,0.00,WeatherDisplay:10.37,2013-12-07 09:05:00,
2013-12-07 02:10:00,-2.8,-12.0,30.45,NE,49,0.0,0.0,64,0.00,CLR,SKC,0.00,WeatherDisplay:10.37,2013-12-07 09:10:00,
2013-12-07 02:15:00,-2.8,-12.3,30.45,NE,49,0.0,0.0,63,0.00,CLR,SKC,0.00,WeatherDisplay:10.37,2013-12-07 09:15:00,
2013-12-07 02:20:00,-2.8,-12.0,30.45,NE,49,0.0,0.0,64,0.00,CLR,SKC,0.00,WeatherDisplay:10.37,2013-12-07 09:20:00,
2013-12-07 02:25:00,-2.9,-12.4,30.45,NE,49,0.0,0.0,63,0.00,CLR,SKC,0.00,WeatherDisplay:10.37,2013-12-07 09:25:00,
2013-12-07 02:30:00,-2.9,-12.4,30.45,NE,49,0.0,0.0,63,0.00,CLR,SKC,0.00,WeatherDisplay:10.37,2013-12-07 09:30:00,
2013-12-07 02:35:00,-2.8,-12.3,30.45,NE,49,0.0,0.0,63,0.00,CLR,SKC,0.00,WeatherDisplay:10.37,2013-12-07 09:35:00,
2013-12-07 02:40:00,-2.8,-12.6,30.45,NE,49,0.0,0.0,62,0.00,CLR,SKC,0.00,WeatherDisplay:10.37,2013-12-07 09:40:00,
2013-12-07 02:45:00,-2.9,-12.4,30.45,NE,49,0.0,0.0,63,0.00,CLR,SKC,0.00,WeatherDisplay:10.37,2013-12-07 09:45:00,
2013-12-07 02:50:00,-2.9,-12.4,30.45,NE,49,0.0,0.0,63,0.00,CLR,SKC,0.00,WeatherDisplay:10.37,2013-12-07 09:50:00,
2013-12-07 02:55:00,-2.8,-12.3,30.45,NE,49,0.0,0.0,63,0.00,CLR,SKC,0.00,WeatherDisplay:10.37,2013-12-07 09:55:00,
2013-12-07 03:00:00,-2.8,-12.3,30.45,NE,49,0.0,0.0,63,0.00,CLR,SKC,0.00,WeatherDisplay:10.37,2013-12-07 10:00:00,
2013-12-07 03:05:00,-2.8,-12.3,30.45,NE,49,0.0,0.0,63,0.00,CLR,SKC,0.00,WeatherDisplay:10.37,2013-12-07 10:05:00,
2013-12-07 03:10:00,-2.8,-12.6,30.44,NE,49,0.0,0.0,62,0.00,CLR,SKC,0.00,WeatherDisplay:10.37,2013-12-07 10:10:00,
2013-12-07 03:16:00,-2.8,-12.6,30.44,NE,49,0.0,0.0,62,0.00,CLR,SKC,0.00,WeatherDisplay:10.37,2013-12-07 10:16:00,
2013-12-07 03:21:00,-2.9,-12.7,30.44,NE,49,0.0,0.0,62,0.00,CLR,SKC,0.00,WeatherDisplay:10.37,2013-12-07 10:21:00,
2013-12-07 03:27:00,-2.9,-12.7,30.44,NE,49,0.0,0.0,62,0.00,CLR,SKC,0.00,WeatherDisplay:10.37,2013-12-07 10:27:00,
2013-12-07 03:32:00,-3.0,-12.5,30.44,NE,49,0.0,0.0,63,0.00,CLR,SKC,0.00,WeatherDisplay:10.37,2013-12-07 10:32:00,
2013-12-07 03:37:00,-3.0,-12.2,30.44,NE,49,0.0,0.0,64,0.00,CLR,SKC,0.00,WeatherDisplay:10.37,2013-12-07 10:37:00,
2013-12-07 03:42:00,-3.1,-12.3,30.44,NE,49,0.0,0.0,64,0.00,CLR,SKC,0.00,WeatherDisplay:10.37,2013-12-07 10:42:00,
2013-12-07 03:47:00,-3.3,-12.5,30.44,NE,49,0.0,0.0,64,0.00,CLR,SKC,0.00,WeatherDisplay:10.37,2013-12-07 10:47:00,
2013-12-07 03:52:00,-3.4,-12.9,30.44,NE,49,0.0,0.0,63,0.00,CLR,SKC,0.00,WeatherDisplay:10.37,2013-12-07 10:52:00,
2013-12-07 03:57:00,-3.5,-13.0,30.44,NE,49,0.0,0.0,63,0.00,CLR,SKC,0.00,WeatherDisplay:10.37,2013-12-07 10:57:00,
2013-12-07 04:02:00,-3.7,-12.8,30.44,NE,49,0.0,0.0,64,0.00,CLR,SKC,0.00,WeatherDisplay:10.37,2013-12-07 11:02:00,
2013-12-07 04:07:00,-3.8,-12.3,30.44,NE,49,0.0,0.0,66,0.00,CLR,SKC,0.00,WeatherDisplay:10.37,2013-12-07 11:07:00,
2013-12-07 04:12:00,-4.0,-12.5,30.44,NE,49,0.0,0.0,66,0.00,CLR,SKC,0.00,WeatherDisplay:10.37,2013-12-07 11:12:00,
2013-12-07 04:18:00,-4.3,-13.1,30.43,NE,49,0.0,0.0,65,0.00,CLR,SKC,0.00,WeatherDisplay:10.37,2013-12-07 11:18:00,
2013-12-07 04:23:00,-4.5,-13.3,30.44,NE,49,0.0,0.0,65,0.00,CLR,SKC,0.00,WeatherDisplay:10.37,2013-12-07 11:23:00,
2013-12-07 04:28:00,-4.7,-13.5,30.43,NE,49,0.0,0.0,65,0.00,CLR,SKC,0.00,WeatherDisplay:10.37,2013-12-07 11:28:00,
2013-12-07 04:33:00,-4.9,-13.7,30.43,NE,49,0.0,0.0,65,0.00,CLR,SKC,0.00,WeatherDisplay:10.37,2013-12-07 11:33:00,
2013-12-07 04:38:00,-5.1,-13.9,30.43,NE,49,0.0,0.0,65,0.00,CLR,SKC,0.00,WeatherDisplay:10.37,2013-12-07 11:38:00,
2013-12-07 04:43:00,-5.3,-13.8,30.43,NE,49,0.0,0.0,66,0.00,CLR,SKC,0.00,WeatherDisplay:10.37,2013-12-07 11:43:00,
2013-12-07 04:48:00,-5.4,-13.5,30.44,NE,49,0.0,0.0,67,0.00,CLR,SKC,0.00,WeatherDisplay:10.37,2013-12-07 11:48:00,
2013-12-07 04:53:00,-5.4,-13.0,30.44,NE,49,0.0,0.0,69,0.00,CLR,SKC,0.00,WeatherDisplay:10.37,2013-12-07 11:53:00,
2013-12-07 04:58:00,-5.4,-11.8,30.44,NE,49,0.0,0.0,73,0.00,CLR,SKC,0.00,WeatherDisplay:10.37,2013-12-07 11:58:00,
2013-12-07 05:03:00,-5.5,-11.4,30.44,NE,49,0.0,0.0,75,0.00,CLR,SKC,0.00,WeatherDisplay:10.37,2013-12-07 12:03:00,
2013-12-07 05:08:00,-5.5,-11.4,30.44,NE,49,0.0,0.0,75,0.00,CLR,SKC,0.00,WeatherDisplay:10.37,2013-12-07 12:08:00,
2013-12-07 05:13:00,-5.6,-12.0,30.44,NE,49,0.0,0.0,73,0.00,CLR,SKC,0.00,WeatherDisplay:10.37,2013-12-07 12:13:00,
2013-12-07 05:18:00,-5.8,-12.5,30.43,NE,49,0.0,0.0,72,0.00,CLR,SKC,0.00,WeatherDisplay:10.37,2013-12-07 12:18:00,
2013-12-07 05:23:00,-6.0,-12.4,30.43,NE,49,0.0,0.0,73,0.00,CLR,SKC,0.00,WeatherDisplay:10.37,2013-12-07 12:23:00,
2013-12-07 05:28:00,-6.1,-12.5,30.43,NE,49,0.0,0.0,73,0.00,CLR,SKC,0.00,WeatherDisplay:10.37,2013-12-07 12:28:00,
2013-12-07 05:33:00,-6.1,-12.2,30.43,NE,49,0.0,0.0,74,0.00,CLR,SKC,0.00,WeatherDisplay:10.37,2013-12-07 12:33:00,
2013-12-07 05:37:00,-6.2,-12.3,30.43,NE,49,0.0,0.0,74,0.00,CLR,SKC,0.00,WeatherDisplay:10.37,2013-12-07 12:37:00,
2013-12-07 05:42:00,-6.2,-12.1,30.42,NE,49,0.0,0.0,75,0.00,CLR,SKC,0.00,WeatherDisplay:10.37,2013-12-07 12:42:00,
2013-12-07 05:47:00,-6.2,-11.8,30.43,NE,49,0.0,0.0,76,0.00,CLR,SKC,0.00,WeatherDisplay:10.37,2013-12-07 12:47:00,
2013-12-07 05:52:00,-6.1,-11.2,30.43,NE,49,0.0,0.0,78,0.00,CLR,SKC,0.00,WeatherDisplay:10.37,2013-12-07 12:52:00,
2013-12-07 05:57:00,-6.1,-10.9,30.43,NE,49,0.0,0.0,79,0.00,CLR,SKC,0.00,WeatherDisplay:10.37,2013-12-07 12:57:00,
2013-12-07 06:02:00,-6.1,-10.7,30.42,NE,49,0.0,0.0,80,0.00,CLR,SKC,0.00,WeatherDisplay:10.37,2013-12-07 13:02:00,
2013-12-07 06:07:00,-6.1,-10.7,30.42,NE,49,0.0,0.0,80,0.00,CLR,SKC,0.00,WeatherDisplay:10.37,2013-12-07 13:07:00,
2013-12-07 06:12:00,-6.1,-10.7,30.42,NE,49,0.0,0.0,80,0.00,CLR,SKC,0.00,WeatherDisplay:10.37,2013-12-07 13:12:00,
2013-12-07 06:17:00,-6.1,-10.7,30.42,NE,49,0.0,0.0,80,0.00,CLR,SKC,0.00,WeatherDisplay:10.37,2013-12-07 13:17:00,
2013-12-07 06:22:00,-6.1,-10.7,30.42,NE,49,0.0,0.0,80,0.00,CLR,SKC,0.00,WeatherDisplay:10.37,2013-12-07 13:22:00,
2013-12-07 06:28:00,-6.1,-10.7,30.42,NE,49,0.0,0.0,80,0.00,CLR,SKC,0.00,WeatherDisplay:10.37,2013-12-07 13:28:00,
2013-12-07 06:53:00,-6.2,-11.0,30.42,NE,49,0.0,0.0,79,0.00,CLR,SKC,0.00,WeatherDisplay:10.37,2013-12-07 13:53:00,
2013-12-07 06:58:00,-6.5,-12.6,30.42,NE,49,0.0,0.0,74,0.00,CLR,SKC,0.00,WeatherDisplay:10.37,2013-12-07 13:58:00,
2013-12-07 07:03:00,-6.6,-13.0,30.42,NE,49,0.0,0.0,73,0.00,CLR,SKC,0.00,WeatherDisplay:10.37,2013-12-07 14:03:00,
2013-12-07 07:08:00,-6.6,-13.0,30.42,NE,49,0.0,0.0,73,0.00,CLR,SKC,0.00,WeatherDisplay:10.37,2013-12-07 14:08:00,
2013-12-07 07:14:00,-6.6,-13.0,30.42,NE,49,0.0,0.0,73,0.00,CLR,SKC,0.00,WeatherDisplay:10.37,2013-12-07 14:14:00,
2013-12-07 07:19:00,-6.7,-13.1,30.42,NE,49,0.0,0.0,73,0.00,CLR,SKC,0.00,WeatherDisplay:10.37,2013-12-07 14:19:00,
2013-12-07 07:24:00,-6.7,-12.8,30.42,NE,49,0.0,0.0,74,0.00,CLR,SKC,0.00,WeatherDisplay:10.37,2013-12-07 14:24:00,
2013-12-07 07:29:00,-6.8,-12.9,30.42,NE,49,0.0,0.0,74,0.00,CLR,SKC,0.00,WeatherDisplay:10.37,2013-12-07 14:29:00,
2013-12-07 07:34:00,-6.8,-12.9,30.42,NE,49,0.0,0.0,74,0.00,CLR,SKC,0.00,WeatherDisplay:10.37,2013-12-07 14:34:00,
2013-12-07 07:39:00,-6.8,-12.9,30.42,NE,49,0.0,0.0,74,0.00,CLR,SKC,0.00,WeatherDisplay:10.37,2013-12-07 14:39:00,
2013-12-07 07:44:00,-6.9,-13.0,30.43,NE,49,0.0,0.0,74,0.00,CLR,SKC,0.00,WeatherDisplay:10.37,2013-12-07 14:44:00,
2013-12-07 07:49:00,-7.0,-12.8,30.42,NE,49,0.0,0.0,75,0.00,CLR,SKC,0.00,WeatherDisplay:10.37,2013-12-07 14:49:00,
2013-12-07 07:54:00,-7.1,-12.9,30.43,NE,49,0.0,0.0,75,0.00,CLR,SKC,0.00,WeatherDisplay:10.37,2013-12-07 14:54:00,
2013-12-07 07:59:00,-7.2,-13.0,30.43,NE,49,0.0,0.0,75,0.00,CLR,SKC,0.00,WeatherDisplay:10.37,2013-12-07 14:59:00,
2013-12-07 08:04:00,-7.3,-13.1,30.43,NE,49,0.0,0.0,75,0.00,CLR,SKC,0.00,WeatherDisplay:10.37,2013-12-07 15:04:00,
2013-12-07 08:09:00,-7.3,-12.9,30.43,NE,49,0.0,0.0,76,0.00,CLR,SKC,0.00,WeatherDisplay:10.37,2013-12-07 15:09:00,
2013-12-07 08:14:00,-7.3,-12.9,30.43,NE,49,0.0,0.0,76,0.00,CLR,SKC,0.00,WeatherDisplay:10.37,2013-12-07 15:14:00,
2013-12-07 08:19:00,-7.3,-12.9,30.43,NE,49,0.0,0.0,76,0.00,CLR,SKC,0.00,WeatherDisplay:10.37,2013-12-07 15:19:00,
2013-12-07 08:24:00,-7.3,-13.1,30.43,NE,49,0.0,0.0,75,0.00,CLR,SKC,0.00,WeatherDisplay:10.37,2013-12-07 15:24:00,
2013-12-07 08:29:00,-7.4,-13.0,30.43,NE,49,0.0,0.0,76,0.00,CLR,SKC,0.00,WeatherDisplay:10.37,2013-12-07 15:29:00,
2013-12-07 08:34:00,-7.4,-13.0,30.44,NE,49,0.0,0.0,76,0.00,CLR,SKC,0.00,WeatherDisplay:10.37,2013-12-07 15:34:00,
2013-12-07 08:39:00,-7.4,-13.0,30.44,NE,49,0.0,0.0,76,0.00,CLR,SKC,0.00,WeatherDisplay:10.37,2013-12-07 15:39:00,
2013-12-07 08:44:00,-7.3,-12.9,30.44,NE,49,0.0,0.0,76,0.00,CLR,SKC,0.00,WeatherDisplay:10.37,2013-12-07 15:44:00,
2013-12-07 08:49:00,-7.2,-13.3,30.44,NE,49,0.0,0.0,74,0.00,CLR,SKC,0.00,WeatherDisplay:10.37,2013-12-07 15:49:00,
2013-12-07 08:54:00,-7.1,-13.8,30.44,NE,49,0.0,0.0,72,0.00,CLR,SKC,0.00,WeatherDisplay:10.37,2013-12-07 15:54:00,
2013-12-07 08:59:00,-6.9,-13.8,30.44,NE,49,0.0,0.0,71,0.00,CLR,SKC,0.00,WeatherDisplay:10.37,2013-12-07 15:59:00,
2013-12-07 09:04:00,-6.7,-13.9,30.45,NE,49,0.0,0.0,70,0.00,CLR,SKC,0.00,WeatherDisplay:10.37,2013-12-07 16:04:00,
2013-12-07 09:09:00,-6.6,-14.1,30.45,NE,49,0.0,0.0,69,0.00,CLR,SKC,0.00,WeatherDisplay:10.37,2013-12-07 16:09:00,
2013-12-07 09:14:00,-6.3,-14.1,30.45,NE,49,0.0,0.0,68,0.00,CLR,SKC,0.00,WeatherDisplay:10.37,2013-12-07 16:14:00,
2013-12-07 09:19:00,-6.0,-14.1,30.45,NE,49,0.0,0.0,67,0.00,CLR,SKC,0.00,WeatherDisplay:10.37,2013-12-07 16:19:00,
2013-12-07 09:24:00,-5.7,-13.8,30.45,NE,49,1.1,1.1,67,0.00,CLR,SKC,0.00,WeatherDisplay:10.37,2013-12-07 16:24:00,
2013-12-07 09:29:00,-5.4,-14.2,30.45,NE,49,0.0,0.0,65,0.00,CLR,SKC,0.00,WeatherDisplay:10.37,2013-12-07 16:29:00,
2013-12-07 09:34:00,-5.3,-13.8,30.45,NE,49,0.0,0.0,66,0.00,CLR,SKC,0.00,WeatherDisplay:10.37,2013-12-07 16:34:00,
2013-12-07 09:39:00,-5.1,-13.8,30.45,NE,49,0.0,0.0,65,0.00,CLR,SKC,0.00,WeatherDisplay:10.37,2013-12-07 16:39:00,
2013-12-07 09:45:00,-4.8,-13.6,30.45,NE,49,1.1,1.1,65,0.00,CLR,SKC,0.00,WeatherDisplay:10.37,2013-12-07 16:45:00,
2013-12-07 09:50:00,-4.6,-13.4,30.45,NE,49,1.1,1.1,65,0.00,CLR,SKC,0.00,WeatherDisplay:10.37,2013-12-07 16:50:00,
2013-12-07 09:55:00,-4.4,-13.5,30.45,NE,49,1.1,1.1,64,0.00,CLR,SKC,0.00,WeatherDisplay:10.37,2013-12-07 16:55:00,
2013-12-07 10:00:00,-4.3,-13.7,30.45,NE,49,1.1,0.0,63,0.00,CLR,SKC,0.00,WeatherDisplay:10.37,2013-12-07 17:00:00,
2013-12-07 10:05:00,-4.1,-13.2,30.45,NE,49,1.1,1.1,64,0.00,CLR,SKC,0.00,WeatherDisplay:10.37,2013-12-07 17:05:00,
2013-12-07 10:09:00,-3.9,-13.3,30.45,NE,49,1.1,1.1,63,0.00,CLR,SKC,0.00,WeatherDisplay:10.37,2013-12-07 17:09:00,
2013-12-07 10:14:00,-3.8,-13.6,30.45,NE,49,0.0,0.0,62,0.00,CLR,SKC,0.00,WeatherDisplay:10.37,2013-12-07 17:14:00,
2013-12-07 10:19:00,-3.6,-13.4,30.45,NE,49,0.0,0.0,62,0.00,CLR,SKC,0.00,WeatherDisplay:10.37,2013-12-07 17:19:00,
2013-12-07 10:24:00,-3.3,-13.1,30.45,NE,49,1.1,0.0,62,0.00,CLR,SKC,0.00,WeatherDisplay:10.37,2013-12-07 17:24:00,
2013-12-07 10:29:00,-3.0,-13.1,30.45,NE,49,1.1,1.1,61,0.00,CLR,SKC,0.00,WeatherDisplay:10.37,2013-12-07 17:29:00,
2013-12-07 10:34:00,-2.7,-12.8,30.45,NE,49,1.1,1.1,61,0.00,CLR,SKC,0.00,WeatherDisplay:10.37,2013-12-07 17:34:00,
2013-12-07 10:39:00,-2.5,-13.0,30.45,NE,49,1.1,1.1,60,0.00,CLR,SKC,0.00,WeatherDisplay:10.37,2013-12-07 17:39:00,
2013-12-07 10:44:00,-2.1,-12.6,30.45,NE,49,1.1,1.1,60,0.00,CLR,SKC,0.00,WeatherDisplay:10.37,2013-12-07 17:44:00,
2013-12-07 10:49:00,-1.9,-12.8,30.45,NE,51,2.3,2.3,59,0.00,CLR,SKC,0.00,WeatherDisplay:10.37,2013-12-07 17:49:00,
2013-12-07 10:54:00,-1.7,-12.9,30.45,NE,51,1.1,1.1,58,0.00,CLR,SKC,0.00,WeatherDisplay:10.37,2013-12-07 17:54:00,
2013-12-07 10:59:00,-1.4,-12.6,30.45,NE,51,1.1,1.1,58,0.00,CLR,SKC,0.00,WeatherDisplay:10.37,2013-12-07 17:59:00,
2013-12-07 11:04:00,-1.2,-12.4,30.45,NE,51,2.3,2.3,58,0.00,CLR,SKC,0.00,WeatherDisplay:10.37,2013-12-07 18:04:00,
2013-12-07 11:09:00,-1.2,-12.8,30.44,NE,52,2.3,2.3,57,0.00,CLR,SKC,0.00,WeatherDisplay:10.37,2013-12-07 18:09:00,
2013-12-07 11:14:00,-1.1,-12.7,30.44,NNE,27,0.0,0.0,57,0.00,CLR,SKC,0.00,WeatherDisplay:10.37,2013-12-07 18:14:00,
2013-12-07 11:19:00,-0.9,-12.1,30.44,ENE,63,1.1,1.1,58,0.00,CLR,SKC,0.00,WeatherDisplay:10.37,2013-12-07 18:19:00,
2013-12-07 11:24:00,-0.8,-12.8,30.44,NE,44,1.1,1.1,56,0.00,CLR,SKC,0.00,WeatherDisplay:10.37,2013-12-07 18:24:00,
2013-12-07 11:29:00,-0.7,-12.0,30.43,ENE,57,1.1,1.1,58,0.00,CLR,SKC,0.00,WeatherDisplay:10.37,2013-12-07 18:29:00,
2013-12-07 11:34:00,-0.4,-12.0,30.43,NE,41,2.3,2.3,57,0.00,CLR,SKC,0.00,WeatherDisplay:10.37,2013-12-07 18:34:00,
2013-12-07 11:39:00,-0.2,-11.8,30.43,NE,41,1.1,1.1,57,0.00,CLR,SKC,0.00,WeatherDisplay:10.37,2013-12-07 18:39:00,
2013-12-07 11:44:00,0.0,-11.3,30.43,NE,47,2.3,2.3,58,0.00,CLR,SKC,0.00,WeatherDisplay:10.37,2013-12-07 18:44:00,
2013-12-07 11:49:00,0.2,-11.1,30.43,NE,47,2.3,2.3,58,0.00,CLR,SKC,0.00,WeatherDisplay:10.37,2013-12-07 18:49:00,
2013-12-07 11:54:00,0.5,-10.8,30.43,NE,47,1.1,1.1,58,0.00,CLR,SKC,0.00,WeatherDisplay:10.37,2013-12-07 18:54:00,
2013-12-07 11:59:00,0.8,-10.9,30.42,NE,49,1.1,1.1,57,0.00,CLR,SKC,0.00,WeatherDisplay:10.37,2013-12-07 18:59:00,
2013-12-07 12:04:00,1.0,-11.1,30.42,NE,49,1.1,1.1,56,0.00,CLR,SKC,0.00,WeatherDisplay:10.37,2013-12-07 19:04:00,
2013-12-07 12:09:00,1.1,-11.3,30.42,NE,51,0.0,0.0,55,0.00,CLR,SKC,0.00,WeatherDisplay:10.37,2013-12-07 19:09:00,
2013-12-07 12:14:00,1.4,-11.1,30.41,NE,48,2.3,2.3,55,0.00,CLR,SKC,0.00,WeatherDisplay:10.37,2013-12-07 19:14:00,
2013-12-07 12:20:00,1.4,-11.8,30.41,NE,48,1.1,1.1,53,0.00,CLR,SKC,0.00,WeatherDisplay:10.37,2013-12-07 19:20:00,
2013-12-07 12:25:00,1.5,-12.1,30.40,NE,38,2.3,2.3,52,0.00,CLR,SKC,0.00,WeatherDisplay:10.37,2013-12-07 19:25:00,
2013-12-07 12:30:00,1.4,-12.2,30.40,NE,42,2.3,2.3,52,0.00,CLR,SKC,0.00,WeatherDisplay:10.37,2013-12-07 19:30:00,
2013-12-07 12:35:00,1.5,-12.1,30.40,NE,42,0.0,0.0,52,0.00,CLR,SKC,0.00,WeatherDisplay:10.37,2013-12-07 19:35:00,
2013-12-07 12:40:00,1.7,-11.9,30.40,North,355,2.3,2.3,52,0.00,CLR,SKC,0.00,WeatherDisplay:10.37,2013-12-07 19:40:00,
2013-12-07 12:46:00,2.0,-11.6,30.40,ESE,108,1.1,1.1,52,0.00,CLR,SKC,0.00,WeatherDisplay:10.37,2013-12-07 19:46:00,
2013-12-07 12:51:00,2.1,-11.9,30.40,East,84,1.1,1.1,51,0.00,CLR,SKC,0.00,WeatherDisplay:10.37,2013-12-07 19:51:00,
2013-12-07 12:56:00,2.4,-10.9,30.39,ENE,71,3.5,3.5,53,0.00,CLR,SKC,0.00,WeatherDisplay:10.37,2013-12-07 19:56:00,
2013-12-07 13:01:00,2.1,-12.3,30.39,ENE,61,1.1,1.1,50,0.00,CLR,SKC,0.00,WeatherDisplay:10.37,2013-12-07 20:01:00,
2013-12-07 13:06:00,1.9,-12.1,30.39,NE,35,1.1,1.1,51,0.00,CLR,SKC,0.00,WeatherDisplay:10.37,2013-12-07 20:06:00,
2013-12-07 13:11:00,1.9,-12.1,30.38,NE,41,2.3,2.3,51,0.00,CLR,SKC,0.00,WeatherDisplay:10.37,2013-12-07 20:11:00,
2013-12-07 13:16:00,2.1,-12.3,30.38,North,349,1.1,1.1,50,0.00,CLR,SKC,0.00,WeatherDisplay:10.37,2013-12-07 20:16:00,
2013-12-07 13:21:00,2.5,-11.2,30.38,North,349,1.1,1.1,52,0.00,CLR,SKC,0.00,WeatherDisplay:10.37,2013-12-07 20:21:00,
2013-12-07 13:26:00,2.8,-11.3,30.38,North,5,1.1,1.1,51,0.00,CLR,SKC,0.00,WeatherDisplay:10.37,2013-12-07 20:26:00,
2013-12-07 13:31:00,2.8,-11.3,30.38,North,5,1.1,1.1,51,0.00,CLR,SKC,0.00,WeatherDisplay:10.37,2013-12-07 20:31:00,
2013-12-07 13:36:00,2.8,-11.7,30.37,North,5,1.1,1.1,50,0.00,CLR,SKC,0.00,WeatherDisplay:10.37,2013-12-07 20:36:00,
2013-12-07 13:41:00,2.7,-11.8,30.37,NNE,32,2.3,2.3,50,0.00,CLR,SKC,0.00,WeatherDisplay:10.37,2013-12-07 20:41:00,
2013-12-07 13:46:00,2.7,-11.8,30.37,ENE,67,1.1,0.0,50,0.00,CLR,SKC,0.00,WeatherDisplay:10.37,2013-12-07 20:46:00,
2013-12-07 13:52:00,3.0,-11.1,30.37,ENE,74,1.1,1.1,51,0.00,CLR,SKC,0.00,WeatherDisplay:10.37,2013-12-07 20:52:00,
2013-12-07 13:57:00,3.4,-10.7,30.37,ENE,76,2.3,2.3,51,0.00,CLR,SKC,0.00,WeatherDisplay:10.37,2013-12-07 20:57:00,
2013-12-07 14:02:00,3.5,-11.0,30.36,ENE,76,0.0,0.0,50,0.00,CLR,SKC,0.00,WeatherDisplay:10.37,2013-12-07 21:02:00,
2013-12-07 14:07:00,3.5,-11.0,30.36,NE,40,1.1,1.1,50,0.00,CLR,SKC,0.00,WeatherDisplay:10.37,2013-12-07 21:07:00,
2013-12-07 14:12:00,3.3,-11.6,30.36,NE,40,1.1,1.1,49,0.00,CLR,SKC,0.00,WeatherDisplay:10.37,2013-12-07 21:12:00,
2013-12-07 14:17:00,3.4,-11.1,30.36,NE,39,1.1,1.1,50,0.00,CLR,SKC,0.00,WeatherDisplay:10.37,2013-12-07 21:17:00,
2013-12-07 14:22:00,3.3,-11.6,30.37,NNE,29,1.1,1.1,49,0.00,CLR,SKC,0.00,WeatherDisplay:10.37,2013-12-07 21:22:00,
2013-12-07 14:27:00,3.7,-10.8,30.36,NNE,18,2.3,2.3,50,0.00,CLR,SKC,0.00,WeatherDisplay:10.37,2013-12-07 21:27:00,
2013-12-07 14:32:00,4.0,-10.5,30.36,NE,40,1.1,1.1,50,0.00,CLR,SKC,0.00,WeatherDisplay:10.37,2013-12-07 21:32:00,
2013-12-07 14:37:00,4.0,-11.0,30.36,NE,40,1.1,0.0,49,0.00,CLR,SKC,0.00,WeatherDisplay:10.37,2013-12-07 21:37:00,
2013-12-07 14:42:00,4.0,-11.0,30.37,NE,40,1.1,1.1,49,0.00,CLR,SKC,0.00,WeatherDisplay:10.37,2013-12-07 21:42:00,
2013-12-07 14:47:00,4.0,-10.5,30.37,NNE,33,1.1,0.0,50,0.00,CLR,SKC,0.00,WeatherDisplay:10.37,2013-12-07 21:47:00,
2013-12-07 14:52:00,4.1,-10.9,30.37,NNW,331,0.0,0.0,49,0.00,CLR,SKC,0.00,WeatherDisplay:10.37,2013-12-07 21:52:00,
2013-12-07 14:56:00,4.3,-10.3,30.37,NNW,331,1.1,1.1,50,0.00,CLR,SKC,0.00,WeatherDisplay:10.37,2013-12-07 21:56:00,
2013-12-07 15:01:00,4.3,-10.3,30.37,NNW,336,1.1,1.1,50,0.00,CLR,SKC,0.00,WeatherDisplay:10.37,2013-12-07 22:01:00,
2013-12-07 15:06:00,4.2,-10.8,30.37,North,5,1.1,1.1,49,0.00,CLR,SKC,0.00,WeatherDisplay:10.37,2013-12-07 22:06:00,
2013-12-07 15:11:00,4.1,-10.5,30.37,NNE,17,1.1,1.1,50,0.00,CLR,SKC,0.00,WeatherDisplay:10.37,2013-12-07 22:11:00,
2013-12-07 15:16:00,4.1,-10.9,30.37,NNE,17,0.0,0.0,49,0.00,CLR,SKC,0.00,WeatherDisplay:10.37,2013-12-07 22:16:00,
2013-12-07 15:21:00,4.2,-10.4,30.37,NNE,17,0.0,0.0,50,0.00,CLR,SKC,0.00,WeatherDisplay:10.37,2013-12-07 22:21:00,
2013-12-07 15:26:00,4.3,-10.3,30.37,NNE,17,0.0,0.0,50,0.00,CLR,SKC,0.00,WeatherDisplay:10.37,2013-12-07 22:26:00,
2013-12-07 15:31:00,4.3,-10.3,30.37,NNE,17,1.1,1.1,50,0.00,CLR,SKC,0.00,WeatherDisplay:10.37,2013-12-07 22:31:00,
2013-12-07 15:37:00,4.2,-10.4,30.38,NNE,17,0.0,0.0,50,0.00,CLR,SKC,0.00,WeatherDisplay:10.37,2013-12-07 22:37:00,
2013-12-07 15:42:00,4.2,-10.0,30.38,NNE,17,0.0,0.0,51,0.00,CLR,SKC,0.00,WeatherDisplay:10.37,2013-12-07 22:42:00,
2013-12-07 15:47:00,4.2,-10.0,30.37,NNE,17,0.0,0.0,51,0.00,CLR,SKC,0.00,WeatherDisplay:10.37,2013-12-07 22:47:00,
2013-12-07 15:52:00,4.0,-10.1,30.38,NNE,17,0.0,0.0,51,0.00,CLR,SKC,0.00,WeatherDisplay:10.37,2013-12-07 22:52:00,
2013-12-07 15:57:00,3.9,-9.8,30.38,NNE,17,0.0,0.0,52,0.00,CLR,SKC,0.00,WeatherDisplay:10.37,2013-12-07 22:57:00,
2013-12-07 16:02:00,3.8,-9.9,30.38,NNE,17,0.0,0.0,52,0.00,CLR,SKC,0.00,WeatherDisplay:10.37,2013-12-07 23:02:00,
2013-12-07 16:07:00,3.5,-10.2,30.39,NNE,17,0.0,0.0,52,0.00,CLR,SKC,0.00,WeatherDisplay:10.37,2013-12-07 23:07:00,
2013-12-07 16:12:00,3.2,-10.1,30.39,NNE,17,0.0,0.0,53,0.00,CLR,SKC,0.00,WeatherDisplay:10.37,2013-12-07 23:12:00,
2013-12-07 16:17:00,2.9,-10.0,30.39,NNE,17,0.0,0.0,54,0.00,CLR,SKC,0.00,WeatherDisplay:10.37,2013-12-07 23:17:00,
2013-12-07 16:22:00,2.8,-10.1,30.39,NNE,17,0.0,0.0,54,0.00,CLR,SKC,0.00,WeatherDisplay:10.37,2013-12-07 23:22:00,
2013-12-07 16:27:00,2.6,-9.9,30.40,NNE,17,0.0,0.0,55,0.00,CLR,SKC,0.00,WeatherDisplay:10.37,2013-12-07 23:27:00,
2013-12-07 16:32:00,2.4,-9.7,30.40,NNE,17,0.0,0.0,56,0.00,CLR,SKC,0.00,WeatherDisplay:10.37,2013-12-07 23:32:00,
2013-12-07 16:37:00,2.1,-10.0,30.40,NNE,17,0.0,0.0,56,0.00,CLR,SKC,0.00,WeatherDisplay:10.37,2013-12-07 23:37:00,
2013-12-07 16:42:00,1.9,-10.6,30.40,NNE,17,0.0,0.0,55,0.00,CLR,SKC,0.00,WeatherDisplay:10.37,2013-12-07 23:42:00,
2013-12-07 16:47:00,1.7,-10.4,30.40,NNE,17,0.0,0.0,56,0.00,CLR,SKC,0.00,WeatherDisplay:10.37,2013-12-07 23:47:00,
2013-12-07 16:52:00,1.4,-10.7,30.41,NNE,17,0.0,0.0,56,0.00,CLR,SKC,0.00,WeatherDisplay:10.37,2013-12-07 23:52:00,
2013-12-07 16:57:00,1.2,-10.5,30.41,NNE,17,0.0,0.0,57,0.00,CLR,SKC,0.00,WeatherDisplay:10.37,2013-12-07 23:57:00,
2013-12-07 17:02:00,1.0,-10.7,30.41,NNE,17,0.0,0.0,57,0.00,CLR,SKC,0.00,WeatherDisplay:10.37,2013-12-08 00:02:00,
2013-12-07 17:07:00,0.7,-10.3,30.41,NNE,17,0.0,0.0,59,0.00,CLR,SKC,0.00,WeatherDisplay:10.37,2013-12-08 00:07:00,
2013-12-07 17:12:00,0.5,-10.1,30.42,NNE,17,0.0,0.0,60,0.00,CLR,SKC,0.00,WeatherDisplay:10.37,2013-12-08 00:12:00,
2013-12-07 17:17:00,0.2,-10.1,30.42,NNE,17,0.0,0.0,61,0.00,CLR,SKC,0.00,WeatherDisplay:10.37,2013-12-08 00:17:00,
2013-12-07 17:22:00,0.0,-10.3,30.42,NNE,17,0.0,0.0,61,0.00,CLR,SKC,0.00,WeatherDisplay:10.37,2013-12-08 00:22:00,
2013-12-07 17:27:00,-0.3,-10.2,30.42,NNE,17,0.0,0.0,62,0.00,CLR,SKC,0.00,WeatherDisplay:10.37,2013-12-08 00:27:00,
2013-12-07 17:32:00,-0.5,-9.8,30.42,NNE,17,0.0,0.0,64,0.00,CLR,SKC,0.00,WeatherDisplay:10.37,2013-12-08 00:32:00,
2013-12-07 17:37:00,-0.8,-9.8,30.42,NNE,17,0.0,0.0,65,0.00,CLR,SKC,0.00,WeatherDisplay:10.37,2013-12-08 00:37:00,
2013-12-07 17:42:00,-1.0,-10.3,30.42,NNE,17,0.0,0.0,64,0.00,CLR,SKC,0.00,WeatherDisplay:10.37,2013-12-08 00:42:00,
2013-12-07 17:47:00,-1.2,-9.8,30.42,NNE,17,0.0,0.0,66,0.00,CLR,SKC,0.00,WeatherDisplay:10.37,2013-12-08 00:47:00,
2013-12-07 17:52:00,-1.4,-10.0,30.42,NNE,17,0.0,0.0,66,0.00,CLR,SKC,0.00,WeatherDisplay:10.37,2013-12-08 00:52:00,
2013-12-07 17:57:00,-1.5,-9.8,30.43,NNE,17,0.0,0.0,67,0.00,CLR,SKC,0.00,WeatherDisplay:10.37,2013-12-08 00:57:00,
2013-12-07 18:02:00,-1.6,-9.9,30.43,NNE,17,0.0,0.0,67,0.00,CLR,SKC,0.00,WeatherDisplay:10.37,2013-12-08 01:02:00,
2013-12-07 18:07:00,-1.8,-9.5,30.43,NNE,17,0.0,0.0,69,0.00,CLR,SKC,0.00,WeatherDisplay:10.37,2013-12-08 01:07:00,
2013-12-07 18:12:00,-1.9,-9.6,30.44,NNE,17,0.0,0.0,69,0.00,CLR,SKC,0.00,WeatherDisplay:10.37,2013-12-08 01:12:00,
2013-12-07 18:17:00,-2.1,-9.8,30.44,NNE,17,0.0,0.0,69,0.00,CLR,SKC,0.00,WeatherDisplay:10.37,2013-12-08 01:17:00,
2013-12-07 18:22:00,-2.1,-9.5,30.44,NNE,17,0.0,0.0,70,0.00,CLR,SKC,0.00,WeatherDisplay:10.37,2013-12-08 01:22:00,
2013-12-07 18:27:00,-2.3,-9.7,30.44,NNE,17,0.0,0.0,70,0.00,CLR,SKC,0.00,WeatherDisplay:10.37,2013-12-08 01:27:00,
2013-12-07 18:32:00,-2.4,-9.8,30.45,NNE,17,0.0,0.0,70,0.00,CLR,SKC,0.00,WeatherDisplay:10.37,2013-12-08 01:32:00,
2013-12-07 18:37:00,-2.5,-9.9,30.45,NNE,17,0.0,0.0,70,0.00,CLR,SKC,0.00,WeatherDisplay:10.37,2013-12-08 01:37:00,
2013-12-07 18:42:00,-2.5,-9.3,30.46,NNE,17,0.0,0.0,72,0.00,CLR,SKC,0.00,WeatherDisplay:10.37,2013-12-08 01:42:00,
2013-12-07 18:47:00,-2.6,-9.4,30.46,NNE,17,0.0,0.0,72,0.00,CLR,SKC,0.00,WeatherDisplay:10.37,2013-12-08 01:47:00,
2013-12-07 18:52:00,-2.7,-9.8,30.46,NNE,17,0.0,0.0,71,0.00,CLR,SKC,0.00,WeatherDisplay:10.37,2013-12-08 01:52:00,
2013-12-07 18:57:00,-2.8,-9.9,30.47,NNE,17,0.0,0.0,71,0.00,CLR,SKC,0.00,WeatherDisplay:10.37,2013-12-08 01:57:00,
2013-12-07 19:02:00,-2.8,-9.6,30.47,NNE,17,0.0,0.0,72,0.00,CLR,SKC,0.00,WeatherDisplay:10.37,2013-12-08 02:02:00,
2013-12-07 19:07:00,-2.9,-9.4,30.48,NNE,17,0.0,0.0,73,0.00,CLR,SKC,0.00,WeatherDisplay:10.37,2013-12-08 02:07:00,
2013-12-07 19:13:00,-3.0,-9.5,30.48,NNE,17,0.0,0.0,73,0.00,CLR,SKC,0.00,WeatherDisplay:10.37,2013-12-08 02:13:00,
2013-12-07 19:18:00,-3.1,-9.6,30.48,NNE,17,0.0,0.0,73,0.00,CLR,SKC,0.00,WeatherDisplay:10.37,2013-12-08 02:18:00,
2013-12-07 19:23:00,-3.2,-9.2,30.48,NNE,17,0.0,0.0,75,0.00,CLR,SKC,0.00,WeatherDisplay:10.37,2013-12-08 02:23:00,
2013-12-07 19:28:00,-3.2,-9.4,30.48,NNE,17,0.0,0.0,74,0.00,CLR,SKC,0.00,WeatherDisplay:10.37,2013-12-08 02:28:00,
2013-12-07 19:34:00,-3.3,-9.2,30.48,NNE,17,0.0,0.0,75,0.00,CLR,SKC,0.00,WeatherDisplay:10.37,2013-12-08 02:34:00,
2013-12-07 19:39:00,-3.4,-8.8,30.49,NNE,17,0.0,0.0,77,0.00,CLR,SKC,0.00,WeatherDisplay:10.37,2013-12-08 02:39:00,
2013-12-07 19:44:00,-3.5,-9.2,30.48,NNE,17,0.0,0.0,76,0.00,CLR,SKC,0.00,WeatherDisplay:10.37,2013-12-08 02:44:00,
2013-12-07 19:49:00,-3.6,-9.3,30.49,NNE,17,0.0,0.0,76,0.00,CLR,SKC,0.00,WeatherDisplay:10.37,2013-12-08 02:49:00,
2013-12-07 19:53:00,-3.7,-9.4,30.49,NNE,17,0.0,0.0,76,0.00,CLR,SKC,0.00,WeatherDisplay:10.37,2013-12-08 02:53:00,
2013-12-07 19:58:00,-3.8,-9.5,30.49,NNE,17,0.0,0.0,76,0.00,CLR,SKC,0.00,WeatherDisplay:10.37,2013-12-08 02:58:00,
2013-12-07 20:03:00,-3.9,-9.0,30.49,NNE,17,0.0,0.0,78,0.00,CLR,SKC,0.00,WeatherDisplay:10.37,2013-12-08 03:03:00,
2013-12-07 20:08:00,-4.0,-9.1,30.49,NNE,17,0.0,0.0,78,0.00,CLR,SKC,0.00,WeatherDisplay:10.37,2013-12-08 03:08:00,
2013-12-07 20:13:00,-4.1,-9.2,30.49,NNE,17,0.0,0.0,78,0.00,CLR,SKC,0.00,WeatherDisplay:10.37,2013-12-08 03:13:00,
2013-12-07 20:18:00,-4.1,-9.0,30.49,NNE,17,0.0,0.0,79,0.00,CLR,SKC,0.00,WeatherDisplay:10.37,2013-12-08 03:18:00,
2013-12-07 20:23:00,-4.3,-9.4,30.50,NNE,17,0.0,0.0,78,0.00,CLR,SKC,0.00,WeatherDisplay:10.37,2013-12-08 03:23:00,
2013-12-07 20:28:00,-4.3,-9.2,30.49,NNE,17,0.0,0.0,79,0.00,CLR,SKC,0.00,WeatherDisplay:10.37,2013-12-08 03:28:00,
2013-12-07 20:33:00,-4.5,-9.1,30.49,NNE,17,0.0,0.0,80,0.00,CLR,SKC,0.00,WeatherDisplay:10.37,2013-12-08 03:33:00,
2013-12-07 20:38:00,-4.6,-8.9,30.49,NNE,17,0.0,0.0,81,0.00,CLR,SKC,0.00,WeatherDisplay:10.37,2013-12-08 03:38:00,
2013-12-07 20:43:00,-4.7,-9.0,30.49,NNE,17,0.0,0.0,81,0.00,CLR,SKC,0.00,WeatherDisplay:10.37,2013-12-08 03:43:00,
2013-12-07 20:48:00,-4.8,-9.1,30.49,NNE,17,0.0,0.0,81,0.00,CLR,SKC,0.00,WeatherDisplay:10.37,2013-12-08 03:48:00,
2013-12-07 20:53:00,-4.8,-9.1,30.49,NNE,17,0.0,0.0,81,0.00,CLR,SKC,0.00,WeatherDisplay:10.37,2013-12-08 03:53:00,
2013-12-07 20:58:00,-4.9,-9.5,30.49,NNE,17,0.0,0.0,80,0.00,CLR,SKC,0.00,WeatherDisplay:10.37,2013-12-08 03:58:00,
2013-12-07 21:03:00,-5.0,-9.6,30.49,NNE,17,0.0,0.0,80,0.00,CLR,SKC,0.00,WeatherDisplay:10.37,2013-12-08 04:03:00,
2013-12-07 21:08:00,-5.2,-9.5,30.49,NNE,17,0.0,0.0,81,0.00,CLR,SKC,0.00,WeatherDisplay:10.37,2013-12-08 04:08:00,
2013-12-07 21:13:00,-5.2,-9.5,30.49,NNE,17,0.0,0.0,81,0.00,CLR,SKC,0.00,WeatherDisplay:10.37,2013-12-08 04:13:00,
2013-12-07 21:18:00,-5.3,-9.6,30.49,NNE,17,0.0,0.0,81,0.00,CLR,SKC,0.00,WeatherDisplay:10.37,2013-12-08 04:18:00,
2013-12-07 21:23:00,-5.4,-9.5,30.49,NNE,17,0.0,0.0,82,0.00,CLR,SKC,0.00,WeatherDisplay:10.37,2013-12-08 04:23:00,
2013-12-07 21:28:00,-5.5,-9.8,30.49,NNE,17,0.0,0.0,81,0.00,CLR,SKC,0.00,WeatherDisplay:10.37,2013-12-08 04:28:00,
2013-12-07 21:33:00,-5.6,-10.2,30.49,NNE,17,0.0,0.0,80,0.00,CLR,SKC,0.00,WeatherDisplay:10.37,2013-12-08 04:33:00,
2013-12-07 21:38:00,-5.8,-10.4,30.49,NNE,17,0.0,0.0,80,0.00,CLR,SKC,0.00,WeatherDisplay:10.37,2013-12-08 04:38:00,
2013-12-07 21:43:00,-5.9,-10.2,30.50,NNE,17,0.0,0.0,81,0.00,CLR,SKC,0.00,WeatherDisplay:10.37,2013-12-08 04:43:00,
2013-12-07 21:48:00,-6.3,-10.9,30.49,NNE,17,0.0,0.0,80,0.00,CLR,SKC,0.00,WeatherDisplay:10.37,2013-12-08 04:48:00,
2013-12-07 21:53:00,-6.5,-11.1,30.49,NNE,17,0.0,0.0,80,0.00,CLR,SKC,0.00,WeatherDisplay:10.37,2013-12-08 04:53:00,
2013-12-07 21:59:00,-6.6,-11.2,30.49,NNE,17,0.0,0.0,80,0.00,CLR,SKC,0.00,WeatherDisplay:10.37,2013-12-08 04:59:00,
2013-12-07 22:01:00,-6.6,-11.2,30.49,NNE,17,0.0,0.0,80,0.00,CLR,SKC,0.00,WeatherDisplay:10.37,2013-12-08 05:01:00,
2013-12-07 22:03:00,-6.6,-11.2,30.50,NNE,17,0.0,0.0,80,0.00,CLR,SKC,0.00,WeatherDisplay:10.37,2013-12-08 05:03:00,
2013-12-07 22:08:00,-6.7,-11.0,30.50,NNE,17,0.0,0.0,81,0.00,CLR,SKC,0.00,WeatherDisplay:10.37,2013-12-08 05:08:00,
2013-12-07 22:12:00,-6.7,-11.0,30.50,NNE,17,0.0,0.0,81,0.00,CLR,SKC,0.00,WeatherDisplay:10.37,2013-12-08 05:12:00,
2013-12-07 22:14:00,-6.7,-11.0,30.50,NNE,17,0.0,0.0,81,0.00,CLR,SKC,0.00,WeatherDisplay:10.37,2013-12-08 05:14:00,
2013-12-07 22:19:00,-6.8,-11.1,30.50,NNE,17,0.0,0.0,81,0.00,CLR,SKC,0.00,WeatherDisplay:10.37,2013-12-08 05:19:00,
2013-12-07 22:24:00,-6.8,-11.1,30.50,NNE,17,0.0,0.0,81,0.00,CLR,SKC,0.00,WeatherDisplay:10.37,2013-12-08 05:24:00,
2013-12-07 22:29:00,-6.8,-11.1,30.50,NNE,17,0.0,0.0,81,0.00,CLR,SKC,0.00,WeatherDisplay:10.37,2013-12-08 05:29:00,
2013-12-07 22:34:00,-7.0,-11.5,30.50,NNE,17,0.0,0.0,80,0.00,CLR,SKC,0.00,WeatherDisplay:10.37,2013-12-08 05:34:00,
2013-12-07 22:39:00,-7.1,-11.6,30.50,NNE,17,0.0,0.0,80,0.00,CLR,SKC,0.00,WeatherDisplay:10.37,2013-12-08 05:39:00,
2013-12-07 22:44:00,-7.3,-11.8,30.51,NNE,17,0.0,0.0,80,0.00,CLR,SKC,0.00,WeatherDisplay:10.37,2013-12-08 05:44:00,
2013-12-07 22:49:00,-7.4,-11.9,30.51,NNE,17,0.0,0.0,80,0.00,CLR,SKC,0.00,WeatherDisplay:10.37,2013-12-08 05:49:00,
2013-12-07 22:54:00,-7.4,-11.7,30.51,NNE,17,0.0,0.0,81,0.00,CLR,SKC,0.00,WeatherDisplay:10.37,2013-12-08 05:54:00,
2013-12-07 22:59:00,-7.4,-11.7,30.51,NNE,17,0.0,0.0,81,0.00,CLR,SKC,0.00,WeatherDisplay:10.37,2013-12-08 05:59:00,
2013-12-07 23:04:00,-7.3,-11.3,30.51,NNE,17,0.0,0.0,82,0.00,CLR,SKC,0.00,WeatherDisplay:10.37,2013-12-08 06:04:00,
2013-12-07 23:09:00,-7.3,-11.3,30.51,NNE,17,0.0,0.0,82,0.00,CLR,SKC,0.00,WeatherDisplay:10.37,2013-12-08 06:09:00,
2013-12-07 23:14:00,-7.4,-11.7,30.51,NNE,17,0.0,0.0,81,0.00,CLR,SKC,0.00,WeatherDisplay:10.37,2013-12-08 06:14:00,
2013-12-07 23:19:00,-7.5,-11.8,30.51,NNE,17,0.0,0.0,81,0.00,CLR,SKC,0.00,WeatherDisplay:10.37,2013-12-08 06:19:00,
2013-12-07 23:24:00,-7.6,-11.6,30.51,NNE,17,0.0,0.0,82,0.00,CLR,SKC,0.00,WeatherDisplay:10.37,2013-12-08 06:24:00,
2013-12-07 23:29:00,-7.6,-11.6,30.51,NNE,17,0.0,0.0,82,0.00,CLR,SKC,0.00,WeatherDisplay:10.37,2013-12-08 06:29:00,
2013-12-07 23:34:00,-7.7,-12.0,30.51,NNE,17,0.0,0.0,81,0.00,CLR,SKC,0.00,WeatherDisplay:10.37,2013-12-08 06:34:00,
2013-12-07 23:39:00,-7.7,-12.0,30.51,NNE,17,0.0,0.0,81,0.00,CLR,SKC,0.00,WeatherDisplay:10.37,2013-12-08 06:39:00,
2013-12-07 23:44:00,-7.8,-12.1,30.52,NNE,17,0.0,0.0,81,0.00,CLR,SKC,0.00,WeatherDisplay:10.37,2013-12-08 06:44:00,
2013-12-07 23:49:00,-7.9,-12.2,30.52,NNE,17,0.0,0.0,81,0.00,CLR,SKC,0.00,WeatherDisplay:10.37,2013-12-08 06:49:00,
2013-12-07 23:55:00,-7.9,-12.2,30.52,NNE,17,0.0,0.0,81,0.00,CLR,SKC,0.00,WeatherDisplay:10.37,2013-12-08 06:55:00,